Weather History for Seattle Boeing, WA

Change the Weather History Date:

Thursday, November 15, 2012

  Actual Average Record
Temperature  
Mean Temperature 42 °F -  
Max Temperature 48 °F 51 °F 61 °F (2001)
Min Temperature 37 °F 40 °F 6 °F (1955)
Degree Days  
Heating Degree Days 22    
Moisture  
Dew Point 39 °F    
Average Humidity 88    
Maximum Humidity 100    
Minimum Humidity 68    
Precipitation  
Precipitation 0.00 in - - ()
Sea Level Pressure  
Sea Level Pressure 30.11 in    
Wind  
Wind Speed 2 mph (SE)    
Max Wind Speed 9 mph    
Max Gust Speed -    
Visibility 8 miles    
Events Fog    
Averages and records for this station are not official NWS values.
T = Trace of Precipitation, MM = Missing Value Source: NWS Daily Summary

Daily Weather History Graph

Daily Weather History Graph

Search for Another Location

Airport:

Trip Planner

Search our weather history database for the weather conditions in past years. The results will help you decide how hot, cold, wet, or windy it might be!

Date:

Astronomy

Nov. 15, 2012 Rise Set
Actual Time 7:15 AM PST 4:32 PM PST
Civil Twilight 6:41 AM PST 5:05 PM PST
Nautical Twilight 6:04 AM PST 5:43 PM PST
Astronomical Twilight 5:27 AM PST 6:19 PM PST
Moon 9:21 AM PST (11/15) 6:24 PM PST (11/15)
Length of Visible Light 10h 24m
Length of Day
9h 17m
Waxing Crescent, 5% of the Moon is Illuminated
Nov 15
Waxing Crescent
Nov 20
First Quarter
Nov 28
Full
Dec 6
Last Quarter
Dec 13
New

Hourly Weather History & Observations

Time (PST) Temp. Windchill Dew Point Humidity Pressure Visibility Wind Dir Wind Speed Gust Speed Precip Events Conditions
12:01 AM 42.8 °F 41.1 °F 41.0 °F 93% 30.28 in 8.0 mi SE 3.5 mph - N/A   Scattered Clouds
12:11 AM 41.0 °F - 39.2 °F 93% 30.27 in 7.0 mi Calm Calm - N/A   Mostly Cloudy
12:53 AM 43.0 °F - 42.1 °F 97% 30.26 in 7.0 mi Calm Calm - N/A   Overcast
1:01 AM 42.8 °F - 42.8 °F 100% 30.26 in 2.0 mi Calm Calm - N/A   Overcast
1:26 AM 42.8 °F - 42.8 °F 100% 30.25 in 0.5 mi Calm Calm - N/A Fog Fog
1:53 AM 43.0 °F - 41.0 °F 93% 30.25 in 0.8 mi Calm Calm - N/A Fog Fog
2:00 AM 42.8 °F 41.1 °F 41.0 °F 93% 30.25 in 6.0 mi Variable 3.5 mph - N/A Fog Fog
2:53 AM 41.0 °F - 39.9 °F 96% 30.23 in 10.0 mi Calm Calm - N/A Fog Fog
3:48 AM 42.8 °F - 39.2 °F 87% 30.21 in 10.0 mi Calm Calm - N/A Fog Fog
3:53 AM 42.1 °F - 39.0 °F 89% 30.21 in 10.0 mi Calm Calm - N/A Fog Fog
4:46 AM 41.0 °F - 37.4 °F 87% 30.20 in 10.0 mi Calm Calm - N/A Fog Fog
4:53 AM 41.0 °F - 37.9 °F 89% 30.20 in 10.0 mi Calm Calm - N/A Fog Fog
5:51 AM 39.2 °F - 37.4 °F 93% 30.18 in 10.0 mi Calm Calm - N/A Fog Fog
5:53 AM 39.9 °F - 37.0 °F 89% 30.18 in 10.0 mi Calm Calm - N/A   Mostly Cloudy
6:53 AM 39.9 °F - 37.0 °F 89% 30.17 in 10.0 mi Calm Calm - N/A   Scattered Clouds
7:53 AM 39.9 °F 37.8 °F 37.0 °F 89% 30.16 in 7.0 mi Variable 3.5 mph - N/A   Mostly Cloudy
8:28 AM 39.2 °F 35.9 °F 37.4 °F 93% 30.14 in 10.0 mi NNW 4.6 mph - N/A   Mostly Cloudy
8:48 AM 41.0 °F 39.0 °F 37.4 °F 87% 30.14 in 10.0 mi North 3.5 mph - N/A   Mostly Cloudy
8:53 AM 42.1 °F - 37.0 °F 82% 30.14 in 10.0 mi Calm Calm - N/A   Mostly Cloudy
9:29 AM 42.8 °F 41.1 °F 37.4 °F 81% 30.13 in 10.0 mi NE 3.5 mph - N/A   Scattered Clouds
9:53 AM 44.1 °F 41.5 °F 37.9 °F 79% 30.11 in 10.0 mi NNW 4.6 mph - N/A   Scattered Clouds
10:53 AM 45.0 °F 42.6 °F 39.0 °F 80% 30.09 in 10.0 mi Variable 4.6 mph - N/A   Scattered Clouds
11:53 AM 46.0 °F 41.4 °F 39.9 °F 79% 30.05 in 9.0 mi NW 9.2 mph - N/A   Partly Cloudy
12:53 PM 48.0 °F - 39.9 °F 74% 30.03 in 10.0 mi WNW 5.8 mph - N/A   Clear
1:53 PM 48.9 °F - 39.9 °F 71% 30.02 in 10.0 mi Calm Calm - N/A   Clear
2:53 PM 48.0 °F - 39.0 °F 71% 30.01 in 10.0 mi Variable 5.8 mph - N/A   Clear
3:53 PM 48.0 °F - 37.9 °F 68% 30.01 in 10.0 mi NW 4.6 mph - N/A   Clear
4:53 PM 46.0 °F 43.9 °F 39.9 °F 79% 30.00 in 10.0 mi WNW 4.6 mph - N/A   Clear
5:53 PM 45.0 °F - 39.9 °F 82% 29.99 in 10.0 mi Calm Calm - N/A   Partly Cloudy
6:53 PM 45.0 °F - 39.9 °F 82% 29.99 in 10.0 mi Calm Calm - N/A   Mostly Cloudy
7:23 PM 42.8 °F 40.1 °F 39.2 °F 87% 29.98 in 10.0 mi SE 4.6 mph - N/A   Mostly Cloudy
7:53 PM 42.1 °F 39.2 °F 39.0 °F 89% 29.98 in 9.0 mi SE 4.6 mph - N/A   Mostly Cloudy
8:03 PM 42.8 °F 40.1 °F 39.2 °F 87% 29.97 in 8.0 mi SE 4.6 mph - N/A   Scattered Clouds
8:53 PM 41.0 °F 39.0 °F 39.0 °F 93% 29.97 in 8.0 mi SE 3.5 mph - N/A   Scattered Clouds
9:53 PM 37.9 °F 32.7 °F 37.0 °F 97% 29.96 in 6.0 mi SE 6.9 mph - N/A   Scattered Clouds
10:46 PM 37.4 °F 31.4 °F 35.6 °F 93% 29.96 in 0.2 mi SE 8.1 mph - N/A Fog Fog
10:53 PM 37.0 °F 30.4 °F 36.0 °F 96% 29.96 in 0.2 mi SE 9.2 mph - N/A Fog Fog
11:10 PM 37.4 °F 31.4 °F 37.4 °F 100% 29.96 in 0.2 mi SSE 8.1 mph - N/A Fog Fog
11:53 PM 39.0 °F 36.8 °F 39.0 °F 100% 29.95 in 0.2 mi SE 3.5 mph - N/A Fog Fog